ボアッティーニ彗星

C/2013 F1 ( Boattini )

English version
Home page
Updated on September 8, 2013

---------------------------------------------------------------------

・ プロフィール

発見日 2013年3月23日
発見光度 17.9等
発見者 A. Boattini (Catalina Sky Survey)

・ 写真集

・ 軌道要素

Epoch 2012 Dec. 19.0 TT = JDT 2456280.5
T 2012 Dec. 2.64967 TT                                  MPC
q   1.8599556            (2000.0)            P               Q
z  -0.0014459      Peri.   91.99971     -0.11996169     -0.86129550
 +/-0.0000235      Node    30.12221     -0.26520970     -0.45145532
e   1.0026893      Incl.   79.68804     +0.95669902     -0.23314834
From 245 observations 2013 Mar. 23-June 3, mean residual 0".5.

・ 光度変化

        m1 = 12.5 + 5 logΔ + 10.0 log r

---------------------------------------------------------------------

軌道要素はM.P.E.C. 2013-P52に掲載されたものです。
光度グラフはComet for Windowsで作成したものです。

---------------------------------------------------------------------

Copyright(C) Seiichi Yoshida (comet@aerith.net). All rights reserved.